COSMOS 1565

Satellite information

Favourite Embed

Satellite Type and Status

PAYLOADIN ORBIT

Key statistics

Satellite COSMOS 1565 at a glance.

Uptime

15180

Days in orbit

Revolutions

≈ 12.6

Per day

Orbit

LEO

Low Earth Orbit

Inclination

74.0

Latest

Satellite identification and parameters

Extended collection of information and parameters for COSMOS 1565.

Object identification

Identified? True

Debris? False

Object name: COSMOS 1565

International designator: 1984-052G

Object number (NORAD): 15004

Object ID (CCSDS): 15004

Country: COMMONWEALTH OF INDEPENDENT STATES (CIS)

Current information (Y/N): Y

RCS size: MEDIUM

Orbital parameters

Period: 114.699 minutes

Inclination: 74.0133 deg

SMA: 7819.877 km

Apoapsis: 1475.308 km

Periapsis: 1408.177 km

RAAN: 347.7823 deg

Eccentricy: 0.0042923

Argument of periapsis: 138.9242 deg

Mean anomaly: 253.6984 deg

Mean motion: 12.55459912 rev/day

Mean motion (dot): -0.00000013 rev/day2

B* drag term: 0.000015899595 1/REarth

Two-line elements (TLE)

Creation date: Dec. 19, 2025, 2:08 a.m.

Reference frame: TEME

Reference center: EARTH

Epoch: Dec. 18, 2025, 11:41 p.m. UTC

TLE line 0: 0 COSMOS 1565

TLE line 1: 1 15004U 84052G 25352.98713267 -.00000013 00000-0 15900-4 0 9993

TLE line 2: 2 15004 74.0133 347.7823 0042923 138.9242 253.6984 12.55459912904534

Live tracking on map

Real-time ground track for satellite COSMOS 1565.

In-orbit conjunctions

There are no conjunctions computed for COSMOS 1565, at the moment. Check back to stay up to date, as we update our databases every day.

Go to all conjunctions

Associated space launch

Military communications satellites

COSMOS 1565 was lifted into orbit during the mission ‘Kosmos-3M | Strela-1M 281-288’, on board a Kosmos-3M space rocket.

The launch took place on May 28, 1984, 9:52 p.m. from 132/2.

For more information about the launch, click the button.

Launch to space Kosmos-3M | Strela-1M 281-288
Kosmos-3M | Strela-1M 281-288

Agency: N/A

Status: Launch Successful

Launch date: May 28, 1984, 9:52 p.m. UTC

Rocket: Kosmos-3M

Launch pad: 132/2

Location: Plesetsk Cosmodrome, Russian Federation

...

Latest news about this satellite

There are no fresh news available about this satellite. Check back as we update our databases every day.


Newsletter sign-up

Weekly statistics, charts and insights to help you stay on top of the space industry.